User: anonymous   Login
Location: Unspecified
(0.0000°N, 0.0000°E)
Time: 14:02:46
(UTC+00:00)
Language:

Kosmos-1598 - Orbit

View from above orbital plane
View from above orbital plane
View from above satellite
View from above satellite

Ground track
Ground track

The orbit data is extracted from the following two-line orbital elements,

1 15292U 84100A   18113.82666722 +.00000016 +00000-0 +10503-5 0  9996
2 15292 082.9491 209.0915 0033001 027.3699 094.0780 13.72962951683575
Epoch (UTC): 23 April 2018 19:50:24
Eccentricity: 0.0033001
inclination: 82.9491°
perigee height: 964 km
apogee height: 1013 km
right ascension of ascending node: 209.0915°
argument of perigee: 27.3699°
revolutions per day: 13.72962951
mean anomaly at epoch: 94.0780°
orbit number at epoch: 68357

The dashed part of the orbit path shows where the satellite is in the earth's shadow,  

DLR